This demonstration page uses our WeatherBlox Daily Observations layout. Learn more.

Left ArrowRight Arrow

40.92945, -100.16068

Hourly Observations for February 8, 2020

Temp ( °F °C ) Dew Point ( °F °C ) Humidity (%) Winds ( mph kmh ) Pressure ( in mb ) Visibility ( mi km ) Precip ( " mm )
12:15 am 00:15 Partly Cloudy 24 -4.3 22 -5.3 93 93 N N/A 30.18 1022 10 16 N/A
12:35 am 00:35 Clear 24 -4.6 22 -5.5 94 94 N N/A 30.18 1022 10 16 N/A
12:55 am 00:55 Mostly Cloudy 24 -4.4 22 -5.5 92 92 N N/A 30.18 1022 10 16 N/A
1:15 am 01:15 Partly Cloudy 24 -4.3 22 -5.5 91 91 WSW 3 6 30.18 1022 10 16 N/A
1:35 am 01:35 Clear 25 -4.1 22 -5.4 91 91 WSW 5 7 30.18 1022 10 16 N/A
1:55 am 01:55 Clear 25 -4.1 22 -5.6 89 89 N N/A 30.18 1022 10 16 N/A
2:15 am 02:15 Clear 23 -5.1 21 -6.1 93 93 WNW 5 7 30.19 1022 10 16 N/A
2:35 am 02:35 Clear 22 -5.6 20 -6.6 93 93 WNW 5 7 30.19 1022 10 16 N/A
2:55 am 02:55 Clear 23 -5.2 21 -6.3 92 92 W 3 6 30.19 1022 10 16 N/A
3:15 am 03:15 Clear 21 -6.2 19 -7 94 94 N N/A 30.20 1023 10 16 N/A
3:35 am 03:35 Clear 20 -6.5 19 -7.3 94 94 N N/A 30.19 1022 10 16 N/A
3:55 am 03:55 Clear 20 -6.5 19 -7.2 95 95 N N/A 30.18 1022 10 16 N/A
4:15 am 04:15 Clear 19 -7 18 -7.6 96 96 N N/A 30.19 1022 10 16 N/A
4:35 am 04:35 Partly Cloudy 19 -7 19 -7.5 96 96 NE 3 6 30.19 1022 10 16 N/A
4:55 am 04:55 Clear 18 -7.8 17 -8.5 95 95 E 5 7 30.20 1023 10 16 N/A
5:15 am 05:15 Partly Cloudy 19 -7.4 18 -8 96 96 ENE 5 7 30.19 1022 10 16 N/A
5:35 am 05:35 Partly Cloudy 19 -7 18 -7.6 96 96 E 3 6 30.20 1023 10 16 N/A
5:55 am 05:55 Mostly Cloudy 20 -6.6 19 -7.2 96 96 E 5 7 30.18 1022 10 16 N/A
6:15 am 06:15 Cloudy 22 -5.7 20 -6.5 94 94 E 5 7 30.16 1021 10 16 N/A
6:35 am 06:35 Cloudy 23 -5.1 22 -5.8 95 95 E 5 7 30.17 1022 10 16 N/A
6:55 am 06:55 Cloudy 24 -4.6 22 -5.5 94 94 ESE 3 6 30.16 1021 10 16 N/A
7:15 am 07:15 Cloudy 24 -4.5 22 -5.5 93 93 SE 3 6 30.15 1021 10 16 N/A
7:35 am 07:35 Cloudy 24 -4.3 22 -5.3 93 93 SE 3 6 30.15 1021 10 16 N/A
7:55 am 07:55 Cloudy 25 -4.1 23 -5.1 93 93 N N/A 30.15 1021 10 16 N/A
8:15 am 08:15 Cloudy 25 -4 23 -5 93 93 ESE 3 6 30.14 1021 10 16 N/A
8:35 am 08:35 Cloudy 25 -3.7 24 -4.7 93 93 SE 3 6 30.13 1020 10 16 N/A
8:55 am 08:55 Cloudy 26 -3.5 24 -4.4 94 94 SE 3 6 30.13 1020 10 16 N/A
9:15 am 09:15 Partly Cloudy 27 -3 25 -3.9 94 94 SSE 5 7 30.12 1020 10 16 N/A
9:35 am 09:35 Sunny 29 -1.8 27 -2.7 94 94 S 6 9 30.10 1019 7 11 N/A
9:55 am 09:55 Sunny 31 -0.8 28 -2.3 90 90 S 7 11 30.09 1019 10 16 N/A
10:15 am 10:15 Partly Cloudy 31 -0.3 28 -2.1 88 88 SSE 8 13 30.09 1019 10 16 N/A
10:35 am 10:35 Partly Cloudy 32 undefined 29 -1.7 88 88 S 9 15 30.08 1019 10 16 N/A
10:55 am 10:55 Sunny 33 0.6 29 -1.9 84 84 S 8 13 30.06 1018 10 16 N/A
11:15 am 11:15 Sunny 35 1.5 29 -1.7 80 80 SSW 9 15 30.04 1017 10 16 N/A
11:35 am 11:35 Sunny 37 2.5 29 -1.7 74 74 SSE 9 15 30.02 1017 10 16 N/A
11:55 am 11:55 Sunny 38 3.2 29 -1.7 71 71 SSE 10 17 30.00 1016 10 16 N/A
12:15 pm 12:15 Sunny 39 4.1 29 -1.5 67 67 SSE 13 20 29.97 1015 10 16 N/A
12:35 pm 12:35 Sunny 42 5.5 30 -1.3 62 62 S 13 20 29.93 1014 10 16 N/A
12:55 pm 12:55 Sunny 42 5.8 29 -1.4 60 60 S 17 28 29.92 1013 10 16 N/A
1:15 pm 13:15 Sunny 44 6.4 30 -1.2 59 59 SSE 15 24 29.89 1012 10 16 N/A
1:35 pm 13:35 Sunny 44 6.6 30 -1.3 57 57 SSE 15 24 29.87 1012 10 16 N/A
1:55 pm 13:55 Sunny 45 7.3 30 -1.1 56 56 S 16 26 29.85 1011 10 16 N/A
2:15 pm 14:15 Sunny 46 7.6 31 -0.8 56 56 SSE 18 30 29.82 1010 10 16 N/A
2:35 pm 14:35 Sunny 47 8.1 31 -0.6 55 55 SSE 17 28 29.80 1009 10 16 N/A
2:55 pm 14:55 Sunny 48 8.7 32 undefined 55 55 S 20 31 29.78 1009 10 16 N/A
3:15 pm 15:15 Sunny 48 8.9 33 0.3 55 55 SSE 18 30 29.77 1008 10 16 N/A
3:35 pm 15:35 Sunny 49 9.2 33 0.4 54 54 SSE 17 28 29.76 1008 10 16 N/A
3:55 pm 15:55 Sunny 51 10.3 33 0.5 51 51 SSE 18 30 29.73 1007 10 16 N/A
4:15 pm 16:15 Sunny 51 10.5 32 0.2 49 49 SSE 16 26 29.73 1007 10 16 N/A
4:35 pm 16:35 Sunny 51 10.8 33 0.3 49 49 SSE 17 28 29.70 1006 10 16 N/A
4:55 pm 16:55 Sunny 53 11.7 31 -0.3 44 44 S 20 31 29.70 1006 10 16 N/A
5:15 pm 17:15 Sunny 52 10.9 31 -0.3 46 46 SSE 16 26 29.70 1006 10 16 N/A
5:35 pm 17:35 Sunny 50 9.8 32 -0.1 50 50 SSE 15 24 29.70 1006 10 16 N/A
5:55 pm 17:55 Sunny 49 9.2 32 -0.1 53 53 SE 13 20 29.72 1006 10 16 N/A
6:15 pm 18:15 Clear 48 8.7 32 -0.2 54 54 SSE 14 22 29.72 1007 10 16 N/A
6:35 pm 18:35 Clear 46 7.7 31 -0.3 57 57 SSE 14 22 29.73 1007 10 16 N/A
6:55 pm 18:55 Clear 45 7.4 31 -0.5 58 58 SE 14 22 29.74 1007 10 16 N/A
7:15 pm 19:15 Clear 44 6.6 31 -0.5 61 61 SSE 13 20 29.74 1007 10 16 N/A
7:35 pm 19:35 Clear 43 6 31 -0.5 63 63 SE 12 19 29.77 1008 10 16 N/A
7:55 pm 19:55 Clear 41 5 31 -0.5 68 68 SE 10 17 29.78 1008 10 16 N/A
8:15 pm 20:15 Clear 39 3.9 31 -0.6 73 73 SE 10 17 29.77 1008 10 16 N/A
8:35 pm 20:35 Clear 40 4.2 31 -0.3 73 73 SE 9 15 29.77 1008 10 16 N/A
8:55 pm 20:55 Clear 41 5 32 undefined 70 70 SSE 16 26 29.77 1008 10 16 N/A
9:15 pm 21:15 Partly Cloudy 41 5.1 32 undefined 70 70 SSE 14 22 29.78 1008 10 16 N/A
9:35 pm 21:35 Mostly Cloudy 41 4.9 32 -0.1 70 70 SE 10 17 29.79 1009 10 16 N/A
9:55 pm 21:55 Partly Cloudy 41 4.8 32 -0.2 70 70 SE 9 15 29.79 1009 10 16 N/A
10:15 pm 22:15 Clear 39 4 31 -0.4 73 73 SSE 10 17 29.79 1009 10 16 N/A
10:35 pm 22:35 Clear 38 3.5 31 -0.4 76 76 SSE 10 17 29.79 1009 10 16 N/A
10:55 pm 22:55 Clear 38 3.1 31 -0.5 77 77 SSE 10 17 29.80 1009 10 16 N/A
11:15 pm 23:15 Clear 37 3 31 -0.5 78 78 SE 8 13 29.80 1009 10 16 N/A
11:35 pm 23:35 Clear 37 2.6 31 -0.7 79 79 SE 6 9 29.81 1010 10 16 N/A
11:55 pm 23:55 Clear 35 1.6 30 -0.9 84 84 E 3 6 29.82 1010 10 16 N/A

Powered by AerisWeather